Volver al catálogo

CELESTIS 17/SHERPA-FX1

ActivoCienciaSSO
NORAD 47486·PAYLOAD·🇺🇸 United States

Lanzado Jan 24, 2021 desde Cape Canaveral Space Force Station

Loading…

Próximos Pases (próximas 24 horas)

TLE

ActualizadoSource: Space-Track

Época: Sep 14, 2026, 01:44 UTC

1 47486U 21006CB  26257.07242513  .00004601  00000-0  14677-3 0  9993
2 47486  97.2175 296.0203 0004941 228.4601 131.6218 15.32985982312915

Sigue CELESTIS 17/SHERPA-FX1 en tiempo real con AllMySat

Download on the App Store